Preview of NWS' New Version of Forecast
This preview is not operational and should not be used for support decisions.

Regional Weather Roundup (RWR)

Issued by National Weather Service (NWS)

                            
000
ASUS43 KDTX 221310
RWRMI 
MICHIGAN HOURLY REGIONAL WEATHER ROUNDUP
NATIONAL WEATHER SERVICE DETROIT/PONTIAC MI
900 AM EDT MON JUL 22 2019

NOTE: "FAIR" INDICATES FEW OR NO CLOUDS BELOW 12,000 FEET WITH NO
SIGNIFICANT WEATHER AND/OR OBSTRUCTION TO VISIBILITY.

MIZ047>049-052>055-059>063-066>070-074>076-081>083-221400-
SOUTHEAST LOWER MICHIGAN
  
CITY           SKY/WX    TMP DP  RH WIND       PRES   REMARKS
ADRIAN         FAIR      67  61  81 NE9       29.97R                  
ALMA           FAIR      64  47  52 N8        30.01S                  
ANN ARBOR        N/A    N/A N/A N/A MISG      29.97R                  
BAD AXE        FAIR      64  55  72 N5        29.96F                  
CARO           FAIR      66  55  69 N5        29.98S                  
DETROIT CITY   FAIR      67  58  72 N8        29.96R                  
DETROIT        CLOUDY    67  61  81 N10       29.97R                  
FLINT          FAIR      68  54  60 N7        29.99S                  
GROSSE ILE     FAIR      68  61  76 N9        29.94S                  
HILLSDALE      FAIR      64  61  89 N7        29.99R                  
HOWELL         FAIR      66  58  75 N6        29.99R                  

CITY           SKY/WX    TMP DP  RH WIND       PRES   REMARKS
JACKSON        FAIR      67  63  87 N6        29.99R                  
LAMBERTVILLE   FAIR     N/A N/A N/A NE5       29.95R                  
LANSING        PTSUNNY   65  53  65 N7        30.00F                  
LAPEER         FAIR      67  56  67 NW6       29.98F                  
MASON          FAIR      67  60  79 NE7       29.99S                  
MONROE         FAIR      70  69  98 N6        29.95R                  
MT. CLEMENS    PTSUNNY   66  59  77 N9        29.96S                  
PONTIAC        PTSUNNY   66  55  67 N9        29.95F                  
PORT HOPE        N/A     66  58  75 NW7       29.95S                  
PORT HURON     FAIR      66  57  72 NW7       29.96S                  
TRI CITIES     FAIR      65  53  65 NW12      30.00S                  
MIDLAND        FAIR      64  52  66 N6        30.00S                  
TROY           FAIR      65  57  74 NW5       29.99R                  
SAGINAW HB     FAIR      64  52  63 N5        29.99S                  
$$
MIZ043>046-050>051-056>058-064>065-071>073-077>080-221400-
SOUTHWEST LOWER MICHIGAN
  
CITY           SKY/WX    TMP DP  RH WIND       PRES   REMARKS
BATTLE CREEK   FAIR      67  59  75 N10       30.01R                  
BENTON HARBOR  FAIR      68  55  63 VRB3      30.02S                  
BIG RAPIDS     FAIR      61  53  74 NW5       30.04R                  
COLDWATER      FAIR      65  64  95 N6        29.99S                  
FREMONT        FAIR      63  50  61 N12       30.04R                  
HOLLAND        FAIR      65  55  70 VRB7      30.05R                  
GRAND RAPIDS   PTSUNNY   65  54  67 N10       30.03R                  
IONIA          FAIR      64  52  63 N5        30.01R                  
KALAMAZOO      FAIR      67  58  72 N10       30.01R                  
LUDINGTON      FAIR      65  54  66 N6        30.05S                  
MARSHALL       FAIR      65  64  97 NE5       29.99S                  
MOUNT PLEASANT FAIR      61  51  70 NW6       30.01R                  
MUSKEGON       PTSUNNY   66  53  63 N12       30.06R                  
SOUTH HAVEN    FAIR      67  56  67 NE6       30.02S                  
$$
MIZ016>042-221400-
NORTHERN LOWER MICHIGAN
  
CITY           SKY/WX    TMP DP  RH WIND       PRES   REMARKS
ALPENA         PTSUNNY   62  55  77 NW6       30.02R                  
BEAVER ISLAND  FAIR      61  51  70 NW7       30.07R                  
BELLAIRE       PTSUNNY   65  56  73 N5        30.05S                  
CADILLAC       FAIR      62  53  71 N10G16    30.04R                  
CHARLEVOIX     FAIR      66  56  70 N12       30.08R                  
FRANKFORT      FAIR      67  53  61 N10G16    30.07R                  
GAYLORD        PTSUNNY   58  49  72 VRB3      30.05R                  
GRAYLING       FAIR      59  52  78 N10       30.02S                  
HARBOR SPRINGS FAIR      64  51  63 N7        30.05R                  
HOUGHTON LAKE  FAIR      61  51  70 N8        30.04R                  
MANISTEE       FAIR      65  54  67 N12       30.05S                  
OSCODA         FAIR      60  53  77 N6        29.97F                  
PELLSTON       FAIR      64  52  64 NW6       30.05R                  
ROGERS CITY    PTSUNNY   62  56  79 NW8       30.04R                  
TRAVERSE CITY  FAIR      65  55  70 NW7G16    30.05R                  
$$
MIZ007>008-015-221400-
EASTERN UPPER MICHIGAN
  
CITY           SKY/WX    TMP DP  RH WIND       PRES   REMARKS
KINROSS        FAIR      61  51  70 NW6       30.05S                  
MACKINAC ISLAN FAIR      59  50  71 CALM      30.05R                  
NEWBERRY       FAIR      60  47  64 N5        30.07R                  
S. S. MARIE    FAIR      63  56  78 W7        30.04R                  
MUNISING         N/A     64  55  72 NW12      30.07S                  
$$
MIZ004>006-011>014-085-221400-
CENTRAL UPPER MICHIGAN
  
CITY           SKY/WX    TMP DP  RH WIND       PRES   REMARKS
MANISTIQUE     FAIR      63  55  76 N9        30.07S                  
ESCANABA       FAIR      62  52  69 NW7       30.09S                  
MENOMINEE      FAIR      62  54  74 N9        30.11R                  
SAWYER-GWINN   SUNNY     61  52  72 NW3       30.09S                  
$$
MIZ001>003-009>011-084-221400-
WESTERN UPPER MICHIGAN
  
CITY           SKY/WX    TMP DP  RH WIND       PRES   REMARKS
IRON MOUNTAIN  FAIR      61  52  72 NW9       30.11S                  
HOUGHTON       FAIR      63  52  67 W13       30.09S                  
COPPER HARBOR    N/A     67  50  54 VRB7      30.06S                  
IRONWOOD       FAIR      58  54  86 W8        30.17S                  
$$

ABBREVIATIONS USED IN REMARKS
   TC - TEMPERATURE IN CELSIUS
  WCI - WIND CHILL INDEX
   HX - HEAT INDEX
  VSB - VISIBILITY